| time (UTC) | temp C | wind direction | speed KPH | gust KPH | rain 1hr cm | rain 24hr cm | rain mn cm | humidity % | barometer mb |
| 20260508114550 | 21 | 163 | 9.7 | 0.0 | 0.00 | 0.00 | 0.00 | 44 | 1015.0 |
| 20260508113122 | 21 | 177 | 8.0 | 0.0 | 0.00 | 0.00 | 0.00 | 43 | 1014.9 |
| 20260508111549 | 21 | 140 | 8.0 | 0.0 | 0.00 | 0.00 | 0.00 | 45 | 1015.3 |
| 20260508110049 | 21 | 230 | 4.8 | 0.0 | 0.00 | 0.00 | 0.00 | 44 | 1015.7 |
| 20260508104555 | 21 | 190 | 8.0 | 0.0 | 0.00 | 0.00 | 0.00 | 45 | 1015.8 |
| 20260508103050 | 21 | 181 | 8.0 | 0.0 | 0.00 | 0.00 | 0.00 | 46 | 1016.0 |
| 20260508101549 | 21 | 123 | 8.0 | 0.0 | 0.00 | 0.00 | 0.00 | 45 | 1015.8 |
| 20260508100045 | 20 | 152 | 6.4 | 0.0 | 0.00 | 0.00 | 0.00 | 46 | 1016.2 |
| 20260508094542 | 20 | 163 | 8.0 | 0.0 | 0.00 | 0.00 | 0.00 | 47 | 1016.7 |
| 20260508093041 | 20 | 126 | 9.7 | 0.0 | 0.00 | 0.00 | 0.00 | 47 | 1016.7 |
| 20260508091545 | 20 | 203 | 8.0 | 0.0 | 0.00 | 0.00 | 0.00 | 51 | 1017.1 |
| 20260508090045 | 20 | 162 | 6.4 | 0.0 | 0.00 | 0.00 | 0.00 | 51 | 1017.0 |
| 20260508084538 | 20 | 165 | 9.7 | 0.0 | 0.00 | 0.00 | 0.00 | 50 | 1017.1 |
| 20260508083039 | 20 | 164 | 8.0 | 0.0 | 0.00 | 0.00 | 0.00 | 49 | 1017.2 |
| 20260508081539 | 20 | 148 | 6.4 | 0.0 | 0.00 | 0.00 | 0.00 | 47 | 1017.0 |
| 20260508080045 | 20 | 131 | 8.0 | 0.0 | 0.00 | 0.00 | 0.00 | 47 | 1017.2 |
| 20260508074534 | 19 | 150 | 11.3 | 0.0 | 0.00 | 0.00 | 0.00 | 45 | 1017.1 |
| 20260508073033 | 18 | 199 | 8.0 | 0.0 | 0.00 | 0.00 | 0.00 | 46 | 1017.4 |
| 20260508071532 | 18 | 136 | 8.0 | 0.0 | 0.00 | 0.00 | 0.00 | 45 | 1017.4 |
| 20260508070031 | 18 | 179 | 6.4 | 0.0 | 0.00 | 0.00 | 0.00 | 44 | 1018.0 |
| 20260508064551 | 18 | 221 | 6.4 | 0.0 | 0.00 | 0.00 | 0.00 | 42 | 1017.8 |
| 20260508063029 | 19 | 167 | 4.8 | 0.0 | 0.00 | 0.00 | 0.00 | 39 | 1017.5 |
| 20260508061525 | 19 | 194 | 3.2 | 0.0 | 0.00 | 0.00 | 0.00 | 37 | 1017.4 |
| 20260508060031 | 19 | 173 | 8.0 | 0.0 | 0.00 | 0.00 | 0.00 | 33 | 1017.0 |
| 20260508054534 | 19 | 177 | 6.4 | 0.0 | 0.00 | 0.00 | 0.00 | 34 | 1016.3 |
| 20260508053020 | 18 | 103 | 0.0 | 0.0 | 0.00 | 0.00 | 0.00 | 39 | 1016.0 |
| 20260508051525 | 18 | 88 | 0.0 | 0.0 | 0.00 | 0.00 | 0.00 | 40 | 1015.7 |
| 20260508050031 | 18 | 88 | 0.0 | 0.0 | 0.00 | 0.00 | 0.00 | 42 | 1015.5 |
| 20260508044520 | 18 | 88 | 1.6 | 0.0 | 0.00 | 0.00 | 0.00 | 45 | 1015.6 |
| 20260508043020 | 18 | 24 | 0.0 | 0.0 | 0.00 | 0.00 | 0.00 | 49 | 1015.5 |
| 20260508041517 | 18 | 24 | 0.0 | 0.0 | 0.00 | 0.00 | 0.00 | 52 | 1015.0 |
| 20260508040017 | 18 | 26 | 0.0 | 0.0 | 0.00 | 0.00 | 0.00 | 50 | 1014.7 |
| 20260508034524 | 18 | 26 | 0.0 | 0.0 | 0.00 | 0.00 | 0.00 | 47 | 1014.5 |
| 20260508033016 | 17 | 26 | 0.0 | 0.0 | 0.00 | 0.00 | 0.00 | 51 | 1014.4 |
| 20260508031516 | 18 | 26 | 0.0 | 0.0 | 0.00 | 0.00 | 0.00 | 52 | 1014.6 |
| 20260508030016 | 18 | 26 | 0.0 | 0.0 | 0.00 | 0.00 | 0.00 | 55 | 1014.5 |
| 20260508024519 | 18 | 142 | 0.0 | 0.0 | 0.00 | 0.00 | 0.00 | 53 | 1014.5 |
| 20260508023014 | 18 | 147 | 0.0 | 0.0 | 0.00 | 0.00 | 0.00 | 51 | 1014.6 |
| 20260508021513 | 19 | 147 | 0.0 | 0.0 | 0.00 | 0.00 | 0.00 | 45 | 1014.7 |
| 20260508020013 | 19 | 147 | 0.0 | 0.0 | 0.00 | 0.00 | 0.00 | 38 | 1014.7 |
| 20260508014511 | 19 | 146 | 4.8 | 0.0 | 0.00 | 0.00 | 0.00 | 39 | 1014.6 |
| 20260508013008 | 18 | 132 | 3.2 | 0.0 | 0.00 | 0.00 | 0.00 | 40 | 1014.8 |
| 20260508011506 | 18 | 87 | 0.0 | 0.0 | 0.00 | 0.00 | 0.00 | 49 | 1015.1 |
| 20260508010009 | 18 | 87 | 0.0 | 0.0 | 0.00 | 0.00 | 0.00 | 52 | 1015.3 |
| 20260508004502 | 18 | 87 | 0.0 | 0.0 | 0.00 | 0.00 | 0.00 | 51 | 1015.4 |
| 20260508003002 | 18 | 90 | 0.0 | 0.0 | 0.00 | 0.00 | 0.00 | 51 | 1015.3 |
| 20260508001501 | 18 | 90 | 0.0 | 0.0 | 0.00 | 0.00 | 0.00 | 53 | 1015.4 |
| 20260508000121 | 18 | 90 | 0.0 | 0.0 | 0.00 | 0.00 | 0.00 | 51 | 1015.4 |
| 20260507234558 | 18 | 90 | 0.0 | 0.0 | 0.00 | 0.00 | 0.00 | 49 | 1015.6 |
| 20260507233057 | 18 | 90 | 0.0 | 0.0 | 0.00 | 0.00 | 0.00 | 49 | 1016.0 |
| 20260507231609 | 18 | 138 | 0.0 | 0.0 | 0.00 | 0.00 | 0.00 | 50 | 1016.1 |
| 20260507230056 | 18 | 138 | 0.0 | 0.0 | 0.00 | 0.00 | 0.00 | 56 | 1016.0 |
| 20260507224553 | 18 | 138 | 0.0 | 0.0 | 0.00 | 0.00 | 0.00 | 55 | 1016.3 |
| 20260507223052 | 18 | 138 | 0.0 | 0.0 | 0.00 | 0.00 | 0.00 | 52 | 1016.3 |
| 20260507221558 | 18 | 138 | 0.0 | 0.0 | 0.00 | 0.00 | 0.00 | 53 | 1016.3 |
| 20260507220052 | 18 | 145 | 3.2 | 0.0 | 0.00 | 0.00 | 0.00 | 53 | 1016.4 |
| 20260507214549 | 18 | 141 | 4.8 | 0.0 | 0.00 | 0.00 | 0.00 | 50 | 1016.7 |
| 20260507213047 | 18 | 128 | 1.6 | 0.0 | 0.00 | 0.00 | 0.00 | 49 | 1016.7 |
| 20260507211555 | 18 | 130 | 4.8 | 0.0 | 0.00 | 0.00 | 0.00 | 48 | 1016.8 |
| 20260507210047 | 18 | 229 | 6.4 | 0.0 | 0.00 | 0.00 | 0.00 | 45 | 1016.8 |
| 20260507204542 | 19 | 224 | 6.4 | 0.0 | 0.00 | 0.00 | 0.00 | 39 | 1016.7 |
| 20260507203041 | 20 | 135 | 3.2 | 0.0 | 0.00 | 0.00 | 0.00 | 34 | 1016.9 |
| 20260507201539 | 20 | 75 | 0.0 | 0.0 | 0.00 | 0.00 | 0.00 | 33 | 1016.7 |
| 20260507200041 | 20 | 75 | 3.2 | 0.0 | 0.00 | 0.00 | 0.00 | 34 | 1016.7 |
| 20260507194539 | 20 | 74 | 0.0 | 0.0 | 0.00 | 0.00 | 0.00 | 42 | 1016.7 |
| 20260507193037 | 20 | 80 | 0.0 | 0.0 | 0.00 | 0.00 | 0.00 | 43 | 1016.6 |
| 20260507191537 | 20 | 117 | 0.0 | 0.0 | 0.00 | 0.00 | 0.00 | 37 | 1016.5 |
| 20260507190039 | 20 | 101 | 1.6 | 0.0 | 0.00 | 0.00 | 0.00 | 33 | 1016.4 |
| 20260507184535 | 20 | 121 | 1.6 | 0.0 | 0.00 | 0.00 | 0.00 | 34 | 1016.5 |
| 20260507183036 | 20 | 136 | 4.8 | 0.0 | 0.00 | 0.00 | 0.00 | 35 | 1016.3 |
| 20260507181534 | 20 | 148 | 3.2 | 0.0 | 0.00 | 0.00 | 0.00 | 39 | 1016.3 |
| 20260507180034 | 20 | 190 | 4.8 | 0.0 | 0.00 | 0.00 | 0.00 | 40 | 1016.3 |
| 20260507174546 | 20 | 121 | 4.8 | 0.0 | 0.00 | 0.00 | 0.00 | 41 | 1016.2 |
| 20260507173033 | 20 | 165 | 8.0 | 0.0 | 0.00 | 0.00 | 0.00 | 42 | 1016.2 |
| 20260507171542 | 21 | 148 | 8.0 | 0.0 | 0.00 | 0.00 | 0.00 | 38 | 1016.3 |
| 20260507170032 | 21 | 140 | 4.8 | 0.0 | 0.00 | 0.00 | 0.00 | 32 | 1015.7 |
| 20260507164531 | 21 | 175 | 8.0 | 0.0 | 0.00 | 0.00 | 0.00 | 33 | 1015.6 |
| 20260507163031 | 21 | 117 | 4.8 | 0.0 | 0.00 | 0.00 | 0.00 | 34 | 1015.7 |
| 20260507161533 | 21 | 148 | 6.4 | 0.0 | 0.00 | 0.00 | 0.00 | 36 | 1015.8 |
| 20260507160038 | 21 | 156 | 9.7 | 0.0 | 0.00 | 0.00 | 0.00 | 34 | 1015.6 |
| 20260507154529 | 21 | 141 | 9.7 | 0.0 | 0.00 | 0.00 | 0.00 | 34 | 1015.8 |
| 20260507153029 | 21 | 157 | 9.7 | 0.0 | 0.00 | 0.00 | 0.00 | 34 | 1016.0 |
| 20260507151529 | 21 | 168 | 8.0 | 0.0 | 0.00 | 0.00 | 0.00 | 35 | 1016.3 |
| 20260507150036 | 21 | 165 | 8.0 | 0.0 | 0.00 | 0.00 | 0.00 | 35 | 1016.2 |
| 20260507144528 | 21 | 136 | 11.3 | 0.0 | 0.00 | 0.00 | 0.00 | 35 | 1016.1 |
| 20260507143027 | 21 | 235 | 9.7 | 0.0 | 0.00 | 0.00 | 0.00 | 37 | 1016.2 |
| 20260507141526 | 21 | 171 | 11.3 | 0.0 | 0.00 | 0.00 | 0.00 | 34 | 1016.1 |
| 20260507140036 | 22 | 213 | 11.3 | 0.0 | 0.00 | 0.00 | 0.00 | 36 | 1015.8 |
| 20260507134525 | 22 | 142 | 12.9 | 0.0 | 0.00 | 0.00 | 0.00 | 31 | 1015.7 |
| 20260507133024 | 22 | 150 | 11.3 | 0.0 | 0.00 | 0.00 | 0.00 | 29 | 1015.6 |
| 20260507131540 | 22 | 172 | 12.9 | 0.0 | 0.00 | 0.00 | 0.00 | 32 | 1015.5 |
| 20260507130022 | 22 | 140 | 11.3 | 0.0 | 0.00 | 0.00 | 0.00 | 32 | 1015.7 |
| 20260507124522 | 22 | 158 | 8.0 | 0.0 | 0.00 | 0.00 | 0.00 | 34 | 1016.1 |
| 20260507123026 | 22 | 156 | 8.0 | 0.0 | 0.00 | 0.00 | 0.00 | 39 | 1016.2 |
| 20260507121519 | 22 | 190 | 11.3 | 0.0 | 0.00 | 0.00 | 0.00 | 38 | 1016.3 |
| 20260507120028 | 22 | 155 | 9.7 | 0.0 | 0.00 | 0.00 | 0.00 | 39 | 1016.3 |